This demonstration page uses our WeatherBlox Daily Observations layout. Learn more.

Left ArrowRight Arrow

31.84235, -102.49876

Hourly Observations for March 5, 2017

Temp ( °F °C ) Dew Point ( °F °C ) Humidity (%) Winds ( mph kmh ) Pressure ( in mb ) Visibility ( mi km ) Precip ( " mm )
12:53 am 00:53 Cloudy 55 12.8 49 9.4 80 80 S 17 28 30.05 1018 10 16 0.00 0.00
1:53 am 01:53 Cloudy 55 12.8 50 10 83 83 S 15 24 30.03 1017 10 16 0.00 0.00
2:53 am 02:53 Cloudy 55 12.8 50 10 83 83 S 18 30 30.02 1017 10 16 0.00 0.00
3:53 am 03:53 Cloudy 55 12.8 50 10 83 83 S 17 28 30.00 1016 10 16 0.00 0.00
4:53 am 04:53 Cloudy 54 12.2 50 10 87 87 S 14 22 29.99 1016 10 16 0.00 0.00
5:53 am 05:53 Cloudy 54 12.2 50 10 87 87 S 14 22 30.00 1016 10 16 0.00 0.00
6:53 am 06:53 Cloudy 54 12.2 49 9.4 83 83 SSW 12 19 30.01 1016 10 16 0.00 0.00
7:53 am 07:53 Cloudy 54 12.2 50 10 87 87 SSW 9 15 30.02 1017 9 14 0.00 0.00
8:53 am 08:53 Cloudy 55 12.8 50 10 83 83 SSW 8 13 30.02 1017 9 14 0.00 0.00
9:24 am 09:24 Mostly Sunny 58 14.4 50 10 75 75 S 10 17 30.03 1017 10 16 0.00 0.00
9:53 am 09:53 Sunny 60 15.6 50 10 70 70 S 9 15 30.02 1017 10 16 0.00 0.00
10:53 am 10:53 Sunny 66 18.9 50 10 56 56 SSW 7 11 30.00 1016 10 16 0.00 0.00
11:53 am 11:53 Sunny 73 22.8 48 8.9 41 41 SW 7 11 29.96 1015 10 16 0.00 0.00
12:53 pm 12:53 Sunny 77 25 45 7.2 32 32 SW 9 15 29.91 1013 10 16 0.00 0.00
1:16 pm 13:16 Mostly Sunny 78 25.6 43 6.1 29 29 SW 10 17 29.83 1010 10 16 0.00 0.00
1:38 pm 13:38 Mostly Cloudy 79 26.1 42 5.6 27 27 WSW 13 20 29.83 1010 10 16 0.00 0.00
1:53 pm 13:53 Partly Cloudy 79 26.1 40 4.4 25 25 WSW 8 13 29.87 1012 10 16 0.00 0.00
2:53 pm 14:53 Sunny 80 26.7 38 3.3 22 22 SSW 12 19 29.83 1010 10 16 0.00 0.00
3:07 pm 15:07 Mostly Sunny 81 27.2 39 3.9 22 22 SSW 14 22 29.74 1007 10 16 0.00 0.00
3:53 pm 15:53 Sunny 81 27.2 37 2.8 21 21 SW 15 24 29.80 1009 10 16 0.00 0.00
4:53 pm 16:53 Mostly Sunny 81 27.2 40 4.4 23 23 SSW 17 28 29.78 1009 10 16 0.00 0.00
5:08 pm 17:08 Partly Cloudy 80 26.7 41 5 25 25 S 15 24 29.68 1005 10 16 0.00 0.00
5:53 pm 17:53 Sunny 77 25 46 7.8 33 33 S 15 24 29.78 1008 10 16 0.00 0.00
6:53 pm 18:53 Mostly Cloudy 73 22.8 46 7.8 38 38 SSE 16 26 29.80 1009 10 16 0.00 0.00
7:53 pm 19:53 Clear 68 20 49 9.4 51 51 SSE 14 22 29.81 1010 10 16 0.00 0.00
8:53 pm 20:53 Mostly Cloudy 65 18.3 50 10 59 59 SSE 17 28 29.83 1010 10 16 0.00 0.00
9:53 pm 21:53 Clear 62 16.7 49 9.4 62 62 S 15 24 29.83 1010 10 16 0.00 0.00
10:53 pm 22:53 Clear 60 15.6 49 9.4 67 67 S 10 17 29.83 1010 10 16 0.00 0.00
11:53 pm 23:53 Clear 58 14.4 50 10 75 75 S 12 19 29.80 1009 9 14 0.00 0.00

Powered by AerisWeather